Location: Blériot-Plage
(50.9575°N, 1.8224°E)
Time: 10:21:00
(UTC+00:00)

Cosmos 1825 Rocket - Pass Details

Date: 15 May 2026
Orbit: 598 x 622 km, 82.5° (Epoch: 5 June)

Event Time Altitude Azimuth Distance (km) Brightness Sun altitude
Rises 22:04:52 0° 344° (NNW) 2,873 8.7 -16.4°
Reaches altitude 10° 22:07:09 10° 338° (NNW) 1,968 7.5 -16.5°
Maximum altitude 22:11:17 44° 267° (W) 847 4.4 -16.8°
Enters shadow 22:13:52 21° 205° (SSW) 1,394 5.0 -16.9°
